Weather History for Moab, UT

Change the Weather History Date:

Tuesday, February 12, 2013

  Actual Average Record
Temperature  
Mean Temperature 25 °F 34 °F  
Max Temperature 32 °F 46 °F 72 °F (1954)
Min Temperature 17 °F 23 °F -3 °F (1929)
Degree Days  
Heating Degree Days 40 31  
Month to date heating degree days 412 390  
Since 1 July heating degree days 4418 3965  
Cooling Degree Days 0 0  
Month to date cooling degree days 0 0  
Year to date cooling degree days 0 0  
Moisture  
Dew Point 17 °F    
Average Humidity 69    
Maximum Humidity 84    
Minimum Humidity 54    
Precipitation  
Precipitation 0.00 in 0.02 in 0.17 in (2005)
Month to date precipitation 0.15 0.22  
Year to date precipitation 0.59 0.86  
Sea Level Pressure  
Sea Level Pressure 30.30 in    
Wind  
Wind Speed 3 mph (NW)    
Max Wind Speed 10 mph    
Max Gust Speed 12 mph    
Visibility 10 miles    
Events      
T = Trace of Precipitation, MM = Missing Value Source: NWS Daily Summary

Daily Weather History Graph

Daily Weather History Graph

Search for Another Location

Airport:

Trip Planner

Search our weather history database for the weather conditions in past years. The results will help you decide how hot, cold, wet, or windy it might be!

Date:

Astronomy

Feb. 12, 2013 Rise Set
Actual Time 7:13 AM MST 5:53 PM MST
Civil Twilight 6:45 AM MST 6:21 PM MST
Nautical Twilight 6:14 AM MST 6:52 PM MST
Astronomical Twilight 5:43 AM MST 7:23 PM MST
Moon 8:14 AM MST (2/12) 8:55 PM MST (2/12)
Length of Visible Light 11h 35m
Length of Day
10h 40m
Waxing Crescent, 8% of the Moon is Illuminated
Feb 12
Waxing Crescent
Feb 17
First Quarter
Feb 25
Full
Mar 4
Last Quarter
Mar 11
New

Hourly Weather History & Observations

Time (MST) Temp. Windchill Dew Point Humidity Pressure Visibility Wind Dir Wind Speed Gust Speed Precip Events Conditions
12:53 AM 21.9 °F - 18.0 °F 85% 30.21 in 10.0 mi Calm Calm - N/A   Clear
1:53 AM 19.0 °F - 15.1 °F 85% 30.23 in 10.0 mi Calm Calm - N/A   Clear
2:53 AM 21.0 °F 14.6 °F 14.0 °F 74% 30.23 in 10.0 mi WSW 4.6 mph - N/A   Clear
3:53 AM 19.0 °F - 12.9 °F 77% 30.25 in 10.0 mi Calm Calm - N/A   Clear
4:53 AM 17.6 °F - 12.2 °F 79% 30.17 in 10.0 mi Calm Calm - N/A   Clear
5:53 AM 21.0 °F - 12.9 °F 71% 30.28 in 10.0 mi Calm Calm - N/A   Mostly Cloudy
6:53 AM 21.9 °F - 16.0 °F 78% 30.30 in 10.0 mi Calm Calm - N/A   Overcast
7:53 AM 21.9 °F - 18.0 °F 85% 30.32 in 10.0 mi Calm Calm - N/A   Overcast
8:53 AM 23.0 °F 15.8 °F 17.1 °F 78% 30.36 in 10.0 mi NW 5.8 mph - N/A   Clear
9:53 AM 27.0 °F - 15.1 °F 61% 30.35 in 10.0 mi Calm Calm - N/A   Clear
10:53 AM 28.9 °F 25.2 °F 16.0 °F 58% 30.34 in 10.0 mi North 3.5 mph - N/A   Clear
11:53 AM 27.0 °F 18.7 °F 19.0 °F 72% 30.33 in 10.0 mi NNW 8.1 mph - N/A   Clear
12:53 PM 28.9 °F 22.8 °F 18.0 °F 64% 30.31 in 10.0 mi NNW 5.8 mph - N/A   Clear
1:53 PM 32.0 °F 27.5 °F 17.1 °F 54% 30.30 in 10.0 mi NW 4.6 mph - N/A   Clear
2:53 PM 32.0 °F 25.6 °F 18.0 °F 56% 30.28 in 10.0 mi NW 6.9 mph - N/A   Clear
3:53 PM 32.0 °F 25.6 °F 17.1 °F 54% 30.29 in 10.0 mi NNW 6.9 mph - N/A   Clear
4:53 PM 30.9 °F 23.5 °F 18.0 °F 59% 30.30 in 10.0 mi NNW 8.1 mph - N/A   Clear
5:53 PM 28.0 °F 22.8 °F 18.0 °F 66% 30.30 in 10.0 mi NW 4.6 mph - N/A   Clear
6:53 PM 28.0 °F 24.2 °F 19.0 °F 69% 30.31 in 10.0 mi West 3.5 mph - N/A   Clear
7:53 PM 26.1 °F - 19.9 °F 78% 30.33 in 10.0 mi Calm Calm - N/A   Clear
8:53 PM 26.1 °F 21.9 °F 19.9 °F 78% 30.32 in 10.0 mi West 3.5 mph - N/A   Clear
9:53 PM 25.0 °F - 19.9 °F 81% 30.33 in 10.0 mi Calm Calm - N/A   Clear
10:53 PM 24.1 °F - 19.0 °F 81% 30.32 in 10.0 mi Calm Calm - N/A   Clear
11:53 PM 23.0 °F - 19.0 °F 85% 30.35 in 10.0 mi Calm Calm - N/A   Clear